Location: Overspoor
(51.4747°N, 5.6641°E)
Time: 22:16:29
(UTC+02:00)

X-37B - Pass Details

Date: 30 January 2022
Orbit: 328 x 343 km, 45.0° (Epoch: 15 May)

Event Time Altitude Azimuth Distance (km) Brightness Sun altitude
Rises 19:35:16 0° 241° (WSW) 2,111 5.4 -20.5°
Reaches altitude 10° 19:37:33 10° 224° (SW) 1,271 3.8 -20.9°
Enters shadow 19:38:51 18° 200° (SSW) 924 2.7 -21.1°
